Regional Weather Roundup
Issued by NWS

Home | Current Version | Previous Version | Graphics & Text | Print | Product List | Glossary Off
Versions: 1 2 3 4 5 6 7 8 9 10 11 12 13 14 15 16 17 18 19 20 21 22 23 24 25 26 27 28 29 30 31 32 33 34 35 36 37 38 39 40 41 42 43 44 45 46 47 48 49 50

000
ASUS43 KMKX 160721
RWRWI

WISCONSIN REGIONAL WEATHER ROUNDUP
NATIONAL WEATHER SERVICE MILWAUKEE/SULLIVAN WI
200 AM CDT TUE SEP 16 2014

NOTE: "FAIR" INDICATES FEW OR NO CLOUDS BELOW 12,000 FEET WITH NO
SIGNIFICANT WEATHER AND/OR OBSTRUCTIONS TO VISIBILITY.

WIZ001-002-006>008-014>016-023>028-160800-
NORTHWEST WISCONSIN

CITY           SKY/WX    TMP DP  RH WIND       PRES   REMARKS
SUPERIOR ARPT  CLEAR     42  37  83 SW9       30.14S
ASHLAND        CLEAR     42  37  82 SW8       30.15S
HAYWARD        CLEAR     35  33  92 CALM      30.17F
SIREN          CLEAR     37  35  93 CALM      30.18S
RICE LAKE      CLEAR     37  36  96 CALM      30.21S
LADYSMITH      CLEAR     37  36  94 CALM      30.20S
EAU CLAIRE     CLEAR     42  39  89 SW3       30.20S
MENOMONIE      SUNNY     41  39  91 CALM      30.21S
NEW RICHMOND   CLEAR     38  38 100 CALM      30.21S
OSCEOLA        CLEAR     37  37 100 CALM      30.22F
$$

WIZ003>005-009-010-017-018-160800-
NORTH CENTRAL WISCONSIN

CITY           SKY/WX    TMP DP  RH WIND       PRES   REMARKS
WOODRUFF       CLEAR     37  34  91 CALM      30.15S
RHINELANDER    CLEAR     34  32  92 W8        30.17R WCI  27
EAGLE RIVER    CLEAR     32  32 100 W5        30.15R FOG     WCI  27
LAND O LAKES   CLEAR     31  31 100 CALM      30.15S
PHILLIPS       CLEAR     35  33  93 CALM      30.16S
TOMAHAWK       CLEAR     33  32  96 CALM      30.18R
MEDFORD        CLEAR     35  34  99 CALM      30.18S
MERRILL        PTCLDY    34  33  98 CALM      30.18S
$$

WIZ029-030-035-036-043>047-160800-
CENTRAL WISCONSIN

CITY           SKY/WX    TMP DP  RH WIND       PRES   REMARKS
WAUSAU         CLEAR     40  38  93 CALM      30.17F
MOSINEE        CLEAR     37  36  93 W3        30.19S
MARSHFIELD     CLEAR     40  37  89 W5        30.19S
STEVENS POINT  CLEAR     35  34  96 CALM      30.20S
WAUPACA        CLEAR     42  40  93 CALM      30.20R
WAUTOMA        CLEAR     38  37  96 CALM      30.21R
WISC RAPIDS    CLEAR     38  37  97 S3        30.21S FOG
CAMP DOUGLAS   CLEAR     36  36 100 CALM      30.22R FOG
$$

WIZ011>013-019>022-031-037>040-048>050-160800-
NORTHEAST WISCONSIN

CITY           SKY/WX    TMP DP  RH WIND       PRES   REMARKS
ANTIGO         CLEAR     35  34  98 CALM      30.17S
STURGEON BAY   CLEAR     46  37  71 NW3       30.16S
GREEN BAY      CLEAR     41  40  96 CALM      30.18R
MANITOWOC      CLEAR     47  43  86 NW6       30.17R
APPLETON       CLEAR     41  37  87 W9        30.19S
CLINTONVILLE   CLEAR     41  37  87 W3        30.18F
OSHKOSH        CLEAR     45  42  89 W3        30.18S
$$

WIZ032>034-041-042-053>061-160800-
SOUTHWEST WISCONSIN

CITY           SKY/WX    TMP DP  RH WIND       PRES   REMARKS
LA CROSSE      CLEAR     46  43  89 SE5       30.22S
SPARTA         CLEAR     34  34 100 CALM      30.23S
VIROQUA        FAIR      41  41 100 CALM      30.22S
BOSCOBEL       FOG       46  44  93 S3        30.24R VSB 1/4
PRAIRIE DU CHI FOG       45  43  95 CALM      30.24S VSB 1/4
PLATTEVILLE    FAIR      44  43  96 CALM      30.24S
$$

WIZ056-057-062-063-064-067-068-160800-
SOUTH CENTRAL WISCONSIN

CITY           SKY/WX    TMP DP  RH WIND       PRES   REMARKS
BARABOO/DELLS  CLEAR     41  39  95 CALM      30.21S
LONE ROCK      HAZE      45  40  82 W3        30.23R VSB 1/2
WATERTOWN      CLEAR     43  43 100 CALM      30.19R
MADISON        CLEAR     41  39  93 CALM      30.21R
MIDDLETON      FAIR      43  42  99 CALM      30.21S
MONROE         CLEAR     46  43  87 NW8       30.21R
JANESVILLE     CLEAR     43  41  93 CALM      30.20R
$$

WIZ051-052-058>065-066-070>072-160800-
SOUTHEAST WISCONSIN

CITY           SKY/WX    TMP DP  RH WIND       PRES   REMARKS
MILWAUKEE      CLEAR     49  45  86 W6        30.17F
WAUKESHA       CLEAR     45  43  93 W7        30.19R
MILWAUKEE/TIMM CLEAR     45  43  93 W3        30.18S
RACINE         CLEAR     47  44  90 W6        30.19S
BURLINGTON     CLEAR     39  39 100 CALM      30.18S
KENOSHA        CLEAR     45  44  97 W7        30.18S
FOND DU LAC    CLEAR     45  41  86 W6        30.19S
SHEBOYGAN      CLEAR     46  42  86 NW5       30.17R
WEST BEND      CLEAR     45  41  87 NW3       30.18S
JUNEAU         CLEAR     43  41  93 N3        30.20S
$$

LSZ147-162-160800-
LAKE SUPERIOR

STATION/POSITION TIME  TEMP    WIND        PRES    WAVE
                       AIR SEA DIR/SP/G            HT/PER
                 (UTC) (F)     (DEG/KT/KT) (MB)    (FT/S)
W MID LAKE BUOY  0650   50 47  240/ 14/ 16 1018.8F   2/ 4
DEVILS ISLAND    0700   51     240/ 15/ 18 1019.9F
PORT WING        0600   47     190/  6/  9 1020.3
SAXON HARBOR     0600   46     190/  7/ 11 1020.7S
$$

LMZ867-665-643>646-160800-
LAKE MICHIGAN

STATION/POSITION TIME  TEMP    WIND        PRES    WAVE
                       AIR SEA DIR/SP/G            HT/PER
                 (UTC) (F)     (DEG/KT/KT) (MB)    (FT/S)
N MID LAKE BUOY  0650   54 58  320/  8/ 10 1020.4R   1/ 3
NORTHPORT PIER   0600   55     310/  7/ 11 1020.3S
KEWAUNEE LAKESHO 0600   48                   N/A
SHEBOYGAN LAKESH 0700   50 49  330/  7/ 10 1022.0R
PORT WASHINGTON  0600   50     290/  6/ 10 1022.0R
ATWATER BUOY     0600   52     260/ 14/ 16 1022.3R
MILWAUKEE LAKESH 0600   51     290/  9/ 11   N/A
S MID LAKE BUOY  0650   58 64  310/ 10/ 12 1021.7R   1/ 3
KENOSHA   LAKESH 0700   49     280/  9/ 13 1021.7S
$$

TC  - TEMPERATURE IN CELSIUS
VSB - VISIBILITY IN STATUTE MILES
WCI - WIND CHILL INDEX
HX  - HEAT INDEX




USA.gov is the U.S. government's official web portal to all federal, state and local government web resources and services.